Home > Weather > Ushuaia > Past weeks

Flag for Argentina Past Weather in Ushuaia, Tierra del Fuego, Argentina — Yesterday and Last 2 Weeks

Now
39 °F

Passing clouds.


Feels Like: 29 °F
Forecast: N/A
Wind: 20 mph from West

Location: Ushuaia Aerodrome

Current Time: Jul 24, 2016 at 7:35:16 PM

Latest Report: Jul 24, 2016 at 6:00 PM


Visibility: N/A

Pressure: 29.95 "Hg

Humidity: 70%

Dew Point: 30 °F

Location of UshuaiaLocation

Past Weather in Ushuaia — Graph

°F

Ushuaia Temperature Yesterday

Maximum temperature yesterday: 36 °F (at 8:00 PM)
Minimum temperature yesterday: 28 °F (at 4:00 AM)
Average temperature yesterday: 33 °F

High & Low Weather Summary for the Past Weeks

 TemperatureHumidityPressure
High50 °F (Jul 19, 6:00 AM)100% (Jul 10, 7:00 AM)30.27 "Hg (Jul 10, 7:00 AM)
Low28 °F (Jul 23, 4:00 AM)34% (Jul 19, 1:00 AM)29.00 "Hg (Jul 20, 11:00 PM)
Average37 °F77%29.73 "Hg
* Reported Jul 9 6:00 PM — Jul 24 6:00 PM, Ushuaia, Weather by CustomWeather, © 2016

Note: Actual official high and low records may vary slightly from our data, if they occured in-between our weather recording intervals... More about our weather records

Advertising

Ushuaia Weather History for the Previous 24 Hours

Scroll right to see more
 ConditionsComfort  
Time TempWeatherWind HumidityBarometerVisibility
6:00 PM
Sun, Jul 24
39 °FPassing clouds.20 mph70%29.95 "HgN/A
5:00 PM39 °FPassing clouds.20 mph70%29.95 "HgN/A
4:00 PM39 °FPartly sunny.16 mph70%29.98 "HgN/A
3:00 PM39 °FPartly sunny.14 mph70%29.98 "HgN/A
2:00 PM39 °FPartly sunny.22 mph81%29.98 "HgN/A
1:00 PM39 °FScattered clouds.20 mph81%29.95 "HgN/A
12:00 PM39 °FScattered clouds.25 mph81%29.95 "HgN/A
11:00 AM37 °FScattered clouds.24 mph81%29.95 "HgN/A
10:00 AM37 °FScattered clouds.29 mph81%29.95 "HgN/A
9:00 AM39 °FScattered clouds.26 mph70%29.92 "HgN/A
8:00 AM37 °FPassing clouds.35 mph75%29.89 "HgN/A
7:00 AM37 °FPassing clouds.28 mph75%29.89 "HgN/A
6:00 AM36 °FPassing clouds.29 mph87%29.89 "HgN/A
5:00 AM36 °FPassing clouds.28 mph87%29.86 "HgN/A
4:00 AM36 °FPassing clouds.29 mph87%29.89 "HgN/A
2:00 AM36 °FPassing clouds.32 mph87%29.83 "HgN/A
1:00 AM36 °FPassing clouds.40 mph87%29.80 "HgN/A
12:00 AM36 °FPassing clouds.37 mph87%29.77 "HgN/A
11:00 PM
Sat, Jul 23
36 °FPassing clouds.35 mph87%29.77 "HgN/A
10:00 PM36 °FPassing clouds.33 mph87%29.77 "HgN/A
9:00 PM36 °FPassing clouds.36 mph87%29.77 "HgN/A
8:00 PM36 °FPassing clouds.31 mph81%29.77 "HgN/A
7:00 PM34 °FScattered showers. Passing clouds.28 mph87%29.77 "HgN/A
Weather by CustomWeather, © 2016

See weather overviewHow to use our weather pages